Probability
6 19 52 58 61 65 65 65 77 74 77 74 87 94 94 94 94 90 90 84 71 71 71 77 84 74 84 81 81 77 77 77 81 71 74 68 71 68 61 48 55 39 65
10 26 58 68 68 68 81 84 94 81 81 87 90 97 97 94 87 90 90 87 77 77 74 68 77 74 81 77 81 71 71 81 81 81 68 52 65 61 48 32 52 48 65
10 35 48 71 74 77 97 94 94 94 90 90 90 90 90 90 90 87 87 81 87 84 74 84 74 68 68 65 61 68 68 68 74 71 58 39 42 42 45 52 65 68 58
16 35 52 81 87 84 94 90 90 94 90 94 94 87 90 94 87 84 81 87 84 77 74 81 77 77 71 61 65 65 65 61 58 48 23 13 19 39 48 55 55 58 52
26 39 77 94 90 94 94 94 87 90 90 90 90 87 87 90 90 87 84 84 74 74 74 77 71 77 77 71 68 74 68 58 39 16 3 3 23 42 45 39 42 45 32
26 42 71 84 87 87 90 94 87 81 84 87 90 90 81 84 81 81 81 81 74 68 68 65 61 68 68 68 61 55 58 48 23 3 13 10 19 55 45 42 42 32 39
13 29 68 84 87 81 84 77 81 77 74 84 81 84 77 74 74 77 68 71 71 71 61 55 52 52 61 58 52 45 42 35 23 6 0 3 35 65 35 42 48 35 42
19 26 68 87 84 84 77 81 71 71 77 74 81 65 74 71 77 71 71 77 74 61 58 48 58 52 55 42 39 35 35 23 6 3 3 3 52 58 35 48 52 48 61
16 26 45 68 84 84 81 77 74 71 74 74 71 71 74 71 61 58 61 68 65 65 52 42 45 45 48 48 48 35 19 19 13 13 3 19 42 52 55 58 48 52 48
29 32 61 55 74 74 71 74 74 71 65 74 77 77 65 65 65 58 61 68 45 35 42 42 35 32 35 39 35 35 23 13 13 13 13 26 61 48 52 52 45 48 52
32 39 39 42 58 61 52 68 71 81 71 77 81 74 68 61 55 58 58 68 39 42 42 35 29 39 39 32 26 39 19 23 13 6 19 32 55 42 42 52 55 42 55
39 39 39 45 48 45 42 65 77 65 74 81 81 77 65 68 61 45 65 68 52 42 48 39 35 42 29 29 32 39 23 16 16 10 26 52 58 58 48 52 58 58 52
26 29 35 42 48 48 65 68 71 77 84 81 74 87 87 74 68 58 71 74 71 61 48 42 29 29 26 32 32 29 26 13 19 13 29 55 65 74 68 65 61 48 52
26 35 32 42 61 71 68 71 74 71 74 68 81 87 77 74 74 65 68 58 52 58 58 45 42 23 23 19 13 13 23 23 19 19 55 65 68 74 71 74 71 68 68
29 32 39 71 87 87 90 81 61 61 61 68 87 87 84 77 74 68 77 77 42 42 39 68 58 58 48 35 23 19 19 19 13 19 52 61 71 77 77 77 74 74 68
61 65 71 84 90 94 87 87 81 68 90 65 77 81 87 74 74 74 68 84 61 61 48 55 61 71 55 52 32 26 26 26 35 42 39 55 65 74 81 81 77 68 61
77 77 90 90 94 90 87 84 84 77 71 74 84 90 87 77 90 90 68 81 71 68 77 71 61 61 61 55 48 39 35 52 39 42 45 52 65 68 77 77 77 68 65
90 94 94 74 84 90 94 94 84 71 81 81 90 97 90 87 87 90 81 65 81 71 71 68 65 58 68 48 61 55 52 58 58 61 52 58 65 65 74 77 81 77 74
97 94 97 90 84 84 94 94 84 84 87 87 90 97 94 84 81 81 84 81 74 65 68 58 52 65 61 68 52 65 52 58 68 52 58 52 61 61 61 74 81 68 74
97 97 94 90 87 87 84 94 87 84 84 84 87 90 90 87 84 84 84 84 68 68 71 65 68 61 65 74 35 35 48 52 65 61 55 45 58 58 52 68 74 77 71
97 97 90 94 90 90 84 84 94 87 87 84 87 81 84 87 94 97 71 81 77 61 71 68 65 52 52 61 68 48 39 26 39 65 61 52 48 55 52 68 71 74 74
94 94 90 94 90 90 94 94 94 90 87 87 87 87 81 81 90 77 94 81 87 94 84 74 71 55 52 58 58 48 42 42 65 16 39 55 52 52 52 52 58 71 68
94 94 87 94 90 94 94 90 94 94 90 90 87 90 87 77 77 77 90 87 81 84 84 77 74 71 68 65 55 65 55 35 35 29 42 32 42 55 52 35 52 58 68
90 90 94 94 94 94 94 94 90 87 87 84 84 87 87 84 81 81 87 84 87 84 87 61 58 74 74 71 65 77 65 61 42 45 32 26 35 48 45 29 16 42 65
81 90 94 97 94 94 94 94 94 94 94 81 77 87 90 87 87 74 81 81 81 74 74 74 74 74 74 68 61 58 48 61 48 61 45 52 42 35 39 48 42 45 52
81 87 94 94 97 94 94 94 97 97 94 94 87 87 84 84 87 81 74 71 74 74 77 81 84 74 74 74 71 55 58 55 58 52 39 68 58 35 29 42 35 39 42
Height
5882 5881 5881 5881 5881 5882 5882 5882 5882 5883 5884 5885 5886 5887 5887 5888 5889 5890 5891 5892 5893 5894 5894 5895 5895 5895 5896 5896 5896 5896 5897 5897 5897 5897 5897 5898 5898 5898 5898 5898 5898 5898 5898
5883 5882 5882 5882 5882 5882 5883 5883 5883 5884 5885 5885 5886 5887 5888 5889 5890 5891 5892 5893 5894 5894 5895 5895 5895 5896 5896 5896 5897 5897 5897 5898 5898 5898 5898 5898 5898 5899 5899 5899 5899 5899 5899
5884 5883 5883 5883 5883 5883 5884 5884 5884 5885 5885 5886 5887 5888 5889 5889 5890 5891 5892 5893 5894 5895 5895 5896 5896 5896 5897 5897 5897 5898 5898 5898 5898 5899 5899 5899 5899 5899 5900 5900 5900 5900 5901
5885 5885 5885 5884 5884 5884 5884 5884 5885 5885 5886 5886 5887 5888 5889 5890 5891 5892 5893 5894 5894 5895 5896 5896 5896 5897 5897 5898 5898 5898 5898 5899 5899 5899 5900 5900 5900 5900 5901 5901 5901 5901 5902
5886 5885 5885 5885 5885 5885 5885 5885 5886 5886 5886 5887 5888 5888 5890 5890 5891 5892 5893 5894 5895 5895 5896 5897 5897 5897 5897 5898 5898 5899 5899 5899 5899 5900 5900 5900 5901 5901 5901 5902 5902 5903 5903
5887 5886 5886 5886 5886 5886 5886 5886 5887 5887 5887 5888 5888 5889 5890 5891 5891 5892 5893 5894 5895 5896 5896 5897 5897 5897 5898 5898 5899 5899 5900 5900 5900 5901 5901 5901 5902 5902 5903 5903 5903 5903 5904
5887 5887 5887 5887 5887 5887 5887 5887 5888 5888 5888 5888 5889 5889 5890 5891 5891 5892 5893 5894 5895 5896 5896 5897 5897 5898 5898 5899 5899 5900 5900 5901 5901 5901 5902 5902 5903 5903 5903 5904 5904 5904 5905
5889 5888 5888 5888 5888 5888 5888 5888 5888 5889 5889 5889 5890 5890 5891 5891 5892 5893 5894 5894 5895 5896 5896 5897 5897 5898 5898 5899 5899 5900 5901 5901 5902 5902 5902 5903 5903 5904 5904 5904 5904 5905 5905
5890 5889 5889 5889 5889 5889 5889 5889 5889 5889 5890 5890 5890 5891 5891 5892 5892 5893 5894 5894 5895 5895 5896 5897 5897 5898 5898 5899 5899 5900 5901 5901 5902 5902 5903 5903 5903 5904 5904 5904 5905 5905 5905
5891 5891 5890 5890 5890 5889 5889 5890 5890 5890 5890 5891 5891 5891 5891 5892 5892 5893 5894 5894 5895 5895 5896 5897 5897 5898 5898 5899 5900 5901 5901 5901 5902 5902 5903 5903 5903 5904 5904 5904 5904 5905 5905
5893 5892 5891 5891 5890 5890 5890 5890 5890 5891 5891 5891 5891 5891 5892 5892 5892 5893 5894 5894 5895 5895 5896 5897 5897 5898 5898 5899 5900 5900 5901 5901 5902 5902 5903 5903 5903 5904 5904 5904 5904 5905 5905
5894 5893 5893 5892 5891 5891 5891 5891 5891 5891 5891 5891 5892 5892 5892 5892 5892 5893 5894 5894 5895 5895 5896 5896 5897 5897 5898 5899 5900 5900 5901 5901 5902 5902 5902 5903 5903 5903 5903 5904 5904 5904 5904
5896 5895 5894 5893 5892 5892 5891 5891 5891 5891 5891 5892 5892 5892 5892 5892 5893 5893 5893 5894 5895 5895 5895 5896 5897 5897 5898 5899 5899 5900 5901 5901 5901 5902 5902 5902 5903 5903 5903 5903 5903 5903 5904
5898 5897 5896 5895 5894 5893 5892 5892 5891 5891 5892 5892 5892 5892 5893 5893 5893 5893 5894 5894 5895 5895 5895 5896 5896 5897 5898 5899 5899 5900 5900 5900 5901 5901 5902 5902 5902 5902 5902 5902 5902 5903 5903
5900 5899 5897 5896 5895 5894 5893 5892 5892 5892 5892 5892 5892 5893 5893 5893 5893 5893 5893 5894 5894 5895 5895 5895 5896 5897 5898 5898 5899 5899 5899 5900 5900 5900 5901 5901 5901 5901 5901 5901 5901 5902 5902
5903 5901 5899 5898 5896 5895 5894 5893 5893 5892 5892 5892 5892 5892 5892 5892 5892 5893 5893 5893 5893 5894 5895 5895 5896 5897 5897 5898 5898 5899 5899 5899 5899 5899 5899 5900 5900 5900 5900 5900 5900 5901 5900
5905 5903 5901 5900 5898 5897 5896 5895 5894 5893 5892 5892 5892 5892 5892 5892 5892 5892 5892 5892 5893 5893 5894 5895 5895 5896 5896 5897 5897 5898 5898 5898 5898 5898 5898 5898 5899 5899 5899 5899 5899 5899 5899
5907 5905 5903 5901 5900 5898 5897 5896 5895 5894 5893 5892 5892 5891 5891 5891 5891 5891 5892 5892 5892 5893 5893 5894 5894 5895 5895 5896 5896 5897 5897 5897 5897 5897 5897 5897 5897 5897 5897 5897 5897 5897 5897
5909 5907 5905 5903 5902 5900 5898 5897 5896 5895 5894 5893 5892 5891 5891 5891 5891 5891 5891 5891 5891 5892 5893 5893 5894 5894 5894 5895 5895 5895 5895 5896 5896 5896 5896 5896 5895 5895 5895 5895 5895 5895 5895
5911 5909 5907 5905 5903 5901 5900 5898 5897 5896 5894 5893 5892 5891 5891 5891 5890 5890 5890 5890 5891 5891 5892 5892 5892 5893 5893 5893 5893 5894 5894 5894 5894 5894 5894 5894 5893 5893 5893 5893 5892 5892 5893
5913 5910 5908 5906 5904 5903 5901 5899 5898 5896 5895 5894 5893 5892 5891 5890 5890 5890 5890 5890 5890 5890 5890 5891 5891 5891 5891 5891 5892 5892 5892 5892 5892 5891 5891 5891 5891 5891 5890 5890 5890 5890 5889
5914 5912 5910 5908 5906 5904 5902 5901 5899 5897 5896 5894 5893 5892 5891 5890 5889 5889 5889 5889 5889 5889 5889 5889 5889 5889 5889 5890 5890 5890 5890 5890 5889 5889 5889 5888 5888 5888 5887 5887 5887 5886 5886
5916 5914 5912 5910 5907 5905 5904 5902 5900 5898 5897 5896 5894 5892 5891 5890 5889 5889 5889 5889 5889 5888 5888 5888 5888 5887 5887 5887 5887 5887 5887 5887 5887 5887 5886 5886 5885 5885 5885 5884 5883 5883 5883
5917 5915 5913 5911 5909 5907 5905 5903 5901 5900 5898 5896 5895 5893 5891 5890 5889 5889 5889 5889 5888 5887 5887 5887 5886 5886 5885 5885 5885 5885 5885 5884 5884 5884 5883 5882 5882 5882 5881 5881 5880 5880 5879
5917 5915 5913 5911 5910 5908 5906 5904 5902 5900 5899 5897 5895 5893 5892 5891 5890 5890 5889 5888 5887 5886 5886 5885 5884 5884 5883 5883 5882 5882 5882 5881 5881 5880 5880 5879 5878 5878 5877 5876 5876 5875 5875
5917 5915 5914 5912 5910 5908 5907 5905 5903 5901 5899 5898 5896 5894 5893 5891 5891 5890 5889 5888 5887 5886 5885 5884 5882 5882 5881 5880 5880 5879 5879 5878 5877 5877 5876 5875 5874 5873 5872 5872 5871 5871 5870
Wind_Speed
5 4 5 5 6 7 7 8 9 9 10 12 13 13 13 13 13 12 11 10 9 9 8 8 7 7 6 6 6 5 5 5 5 5 5 6 6 5 5 5 5 5 6
4 4 4 5 5 5 7 7 8 9 11 12 12 13 12 12 12 10 10 9 9 8 8 7 7 6 6 6 6 5 5 5 5 5 5 5 5 6 6 6 5 5 6
4 5 5 5 5 6 6 7 8 8 9 11 11 11 11 11 10 9 9 8 8 7 7 6 6 6 6 6 5 5 5 5 5 5 5 5 6 6 6 6 5 5 6
5 4 4 5 4 5 6 7 7 7 8 9 10 10 10 10 9 8 8 8 7 7 6 6 6 6 6 5 5 5 5 5 4 5 5 6 6 6 6 5 5 5 6
5 4 4 4 4 5 5 6 7 7 8 9 9 9 9 9 9 8 8 7 6 6 6 6 5 5 5 5 5 5 5 5 4 5 5 5 6 6 6 5 5 6 6
6 5 4 4 4 4 5 6 7 8 9 8 8 8 9 9 8 7 7 6 6 5 5 5 5 5 5 5 5 5 5 4 4 5 5 5 5 5 5 5 5 5 5
6 5 5 4 4 4 4 5 7 8 8 8 8 8 8 8 8 7 7 7 6 6 5 5 5 5 4 4 4 4 4 4 4 5 5 5 4 5 4 4 4 4 5
6 6 5 4 4 4 4 6 7 8 7 7 7 7 6 6 6 7 7 6 6 5 4 5 5 5 4 4 4 4 4 4 4 5 5 4 4 4 4 4 3 3 4
8 6 5 5 4 4 5 6 6 7 7 7 6 7 6 6 6 6 6 6 6 5 4 4 4 4 4 4 4 4 3 3 3 4 4 3 4 4 4 3 3 3 3
8 7 6 5 4 4 4 5 5 6 6 6 6 6 6 6 6 7 6 6 5 5 4 4 4 4 4 4 4 4 3 3 3 3 4 4 4 3 3 3 3 3 3
10 8 7 5 4 3 4 4 4 5 5 5 5 6 5 6 7 7 6 6 5 5 4 4 3 4 4 4 4 4 3 3 3 3 3 3 3 3 3 3 3 3 4
11 10 8 7 6 4 4 3 4 4 5 5 5 5 5 6 6 6 6 5 5 4 4 4 3 4 4 4 4 4 4 3 3 3 3 3 3 4 4 4 4 4 4
11 10 9 7 7 6 5 4 4 4 4 4 4 4 4 4 5 6 6 5 4 3 4 4 3 4 4 4 4 3 3 3 3 4 3 4 4 4 5 5 5 5 5
12 11 10 9 7 6 6 5 4 3 3 3 3 4 4 4 4 5 5 5 4 3 3 4 4 4 4 4 4 4 4 3 3 4 4 4 5 5 5 5 5 5 6
14 12 11 10 9 8 6 6 5 3 2 3 3 3 3 3 3 4 5 5 4 4 4 4 5 5 4 4 4 3 4 4 4 4 5 5 6 6 6 6 6 6 6
14 13 12 11 10 9 7 6 5 4 3 1 2 3 3 4 4 4 5 5 4 4 4 4 5 4 4 4 4 4 3 3 5 5 6 6 6 7 7 7 7 7 7
14 14 13 12 11 10 9 8 7 6 5 3 0 2 3 3 4 4 5 5 4 5 5 4 5 5 4 4 4 5 4 5 5 6 6 7 7 7 7 7 7 7 8
14 14 13 13 12 11 10 9 8 7 6 5 3 0 2 3 4 4 5 5 5 5 5 5 6 6 6 6 6 6 6 6 6 6 7 7 8 8 8 9 8 8 9
14 13 13 13 12 11 10 9 8 7 6 6 5 2 1 2 3 3 4 5 5 4 4 5 5 6 6 7 7 7 7 8 8 8 8 9 9 9 9 10 10 10 11
14 14 13 13 12 11 11 10 9 8 7 7 6 4 3 2 2 3 3 4 4 4 5 5 5 6 7 7 7 7 8 9 9 9 9 10 11 11 11 12 12 12 12
14 14 14 13 13 12 11 11 9 9 8 7 7 5 4 3 2 2 2 3 4 4 5 5 5 7 8 8 8 8 9 10 10 11 11 11 12 12 12 12 13 14 14
13 13 13 13 13 12 12 11 11 10 9 8 7 6 5 4 3 3 3 2 3 4 4 5 6 7 8 8 9 9 10 11 11 12 12 12 12 13 13 13 13 15 15
12 12 12 12 12 12 12 11 11 11 10 9 8 7 6 5 4 4 4 3 3 4 5 6 7 7 8 9 10 10 11 12 12 13 14 14 14 14 14 15 15 15 16
11 11 11 11 11 11 12 11 11 11 11 10 10 9 6 6 6 5 5 5 5 5 6 7 8 8 8 9 11 12 12 13 13 14 15 15 16 16 16 16 17 17 17
9 10 10 10 10 10 11 11 11 11 10 10 10 10 8 7 7 6 6 7 7 6 6 7 8 8 8 9 10 12 13 14 15 15 16 17 18 18 18 18 18 18 18
8 8 9 10 9 9 10 10 10 10 10 9 9 9 9 8 8 8 7 7 7 7 7 8 8 8 9 10 10 11 13 14 15 16 16 17 18 18 19 19 19 19 19
Wind_Direction
101 114 118 111 129 139 141 139 132 134 138 138 136 134 131 129 127 124 121 119 117 116 114 113 114 116 120 119 111 106 108 113 115 119 115 110 112 112 107 105 109 112 113
102 115 115 114 121 130 141 139 135 134 139 139 138 137 135 132 129 126 124 121 119 118 117 117 116 120 123 123 113 107 110 117 119 116 117 115 111 111 108 108 108 116 116
93 107 115 114 115 122 136 138 130 131 135 136 140 138 136 134 130 126 127 126 124 122 119 119 120 122 122 120 116 110 114 121 130 126 123 118 109 109 112 110 109 116 122
89 100 109 112 116 125 132 134 130 131 134 139 141 139 138 137 135 132 131 131 132 130 128 128 126 122 120 119 118 114 115 117 120 125 121 117 109 109 111 112 112 119 123
86 92 108 111 120 127 128 125 130 134 133 136 141 139 139 140 140 138 138 140 143 141 140 138 132 130 122 119 120 120 118 118 115 126 120 120 115 111 112 115 118 127 128
81 86 97 107 114 120 126 129 131 135 133 133 138 140 141 141 140 140 144 146 147 146 147 146 138 135 129 126 128 123 120 122 123 129 123 123 122 122 120 122 125 131 132
76 82 93 103 113 120 127 133 133 137 134 134 140 146 146 143 142 141 142 144 143 143 148 154 146 144 141 135 137 137 134 138 133 132 129 130 134 136 134 134 139 141 140
73 81 93 101 114 125 128 133 136 138 135 137 143 149 151 150 147 147 149 148 150 153 158 160 154 155 148 149 145 143 147 151 144 144 137 138 146 150 152 150 154 162 163
70 80 93 100 109 121 129 136 143 142 142 142 142 143 147 154 154 152 154 153 148 149 152 159 157 155 151 153 152 156 157 159 162 166 158 159 159 162 164 168 170 177 168
65 70 78 89 102 115 130 138 145 148 149 147 147 146 145 153 154 151 153 153 151 151 155 158 166 158 157 160 158 156 158 170 177 187 181 174 175 180 178 182 182 178 173
62 65 69 73 84 102 124 141 149 154 155 154 150 150 153 160 158 153 155 155 158 161 167 166 177 175 165 164 166 163 162 171 181 187 193 198 200 205 193 194 203 201 198
57 59 61 63 70 84 106 132 148 155 156 155 153 155 154 161 167 165 166 168 166 172 180 179 174 178 178 174 172 174 174 176 191 194 208 220 226 218 212 212 219 214 211
54 54 56 59 66 72 82 110 132 147 154 157 159 159 160 164 172 177 176 181 181 178 181 184 180 178 181 185 185 190 188 187 203 210 219 228 227 230 232 230 228 222 216
51 52 53 54 57 62 68 80 102 134 161 166 172 168 166 171 183 190 194 193 189 190 192 190 186 184 188 196 201 199 202 205 218 223 222 227 228 234 242 244 239 232 229
49 49 50 51 52 52 57 67 72 77 129 174 187 187 187 191 192 199 209 209 207 209 205 199 205 197 200 207 210 207 217 223 235 234 230 231 235 242 251 257 251 242 243
48 49 49 49 51 52 53 56 57 54 57 96 202 203 201 211 213 214 216 218 215 216 212 202 201 207 213 219 221 223 228 236 239 242 241 242 246 254 258 262 262 258 253
46 47 48 49 50 49 49 51 51 46 44 39 38 216 212 220 223 226 230 225 216 213 211 214 222 223 229 232 234 241 246 250 243 247 252 252 255 258 260 264 265 265 266
44 44 44 44 45 47 46 46 47 44 40 35 29 270 233 232 233 235 236 234 227 223 224 229 233 231 235 237 239 248 253 255 259 260 258 260 261 262 264 264 266 268 270
40 40 40 40 41 42 41 42 41 39 36 34 33 29 333 265 245 241 242 234 227 230 239 240 244 237 238 242 244 248 255 258 261 265 266 265 265 266 266 265 267 268 270
37 36 35 35 35 34 33 35 36 34 33 32 32 39 15 332 294 260 248 234 235 243 248 247 248 251 249 250 252 253 260 263 262 266 268 268 269 269 269 268 266 267 269
33 33 32 33 32 32 31 30 32 31 31 30 27 29 27 10 348 323 280 245 243 249 254 257 258 261 258 255 256 261 267 268 268 267 269 272 273 272 273 272 267 267 268
29 30 30 31 30 29 30 30 32 33 30 25 25 23 24 15 353 341 323 287 268 262 261 265 265 264 266 262 263 267 270 270 271 270 272 276 278 280 278 277 275 271 271
24 26 26 26 27 27 27 29 31 30 26 24 22 18 18 19 7 354 338 327 304 288 283 282 275 273 274 270 269 271 273 274 273 274 274 277 277 279 280 279 278 276 274
14 18 20 20 21 22 23 25 25 25 25 25 23 18 15 15 15 9 355 346 326 313 306 299 295 287 283 278 274 273 274 277 278 278 280 278 278 278 280 280 281 279 276
2 6 9 10 12 16 17 18 20 20 19 20 21 20 19 16 14 2 353 347 340 326 318 319 308 292 286 286 284 280 277 278 278 281 283 283 282 281 281 280 281 280 277
349 354 359 1 2 7 11 11 11 13 16 19 19 13 13 11 6 0 355 347 338 333 327 323 318 307 297 293 293 291 287 283 282 282 284 287 289 287 284 283 281 279 278